PROFILE

 METAR AND TAF INFORMATION
ADDS - METARS form results

(0545 UTC 22 September 2019)
http://aviationweather.gov/metar/data/
 
ENGM 220520Z 36003KT 320V030 9999 VCFG NSC 04/03 Q1015 TEMPO 4000 BCFG BKN002
ENGM 220450Z 33003KT 9999 0800E R19R/P2000N R01R/P2000N MIFG VCFG NSC 05/04 Q1015 TEMPO 4000 BCFG BKN002
TAF ENGM 2200/2224 VRB05KT CAVOK PROB30 2202/2206 0300 FG VV001 BECMG 2212/2214 07010KT 

 AIRPORT MAP

 RUNWAY INFORMATION
Runway 01L Runway length 11811 ft Runway width 148 ft
Runway elevation 656 ft Runway displaced threshold 0 ft Runway heading 16
Runway 19R Runway length 11811 ft Runway width 148 ft
Runway elevation 675 ft Runway displaced threshold 0 ft Runway heading 196
Runway 01R Runway length 9678 ft Runway width 148 ft
Runway elevation 670 ft Runway displaced threshold 0 ft Runway heading 16
Runway 19L Runway length 9678 ft Runway width 148 ft
Runway elevation 681 ft Runway displaced threshold 0 ft Runway heading 196

 AIRPORT FREQUENCIES
Type APP Name APP Frequency 119.975 MHZ
Type ATIS Name ATIS Frequency 126.125 MHZ
Type CLD Name CLNC DEL Frequency 121.6 MHZ
Type DIR Name DIRECTOR Frequency 131.35 MHZ
Type GND Name GND Frequency 121.925 MHZ
Type MISC Name DE ICING Frequency 131.975 MHZ
Type OPS Name WINGOPS Frequency 29.38 MHZ
Type PMSV Name PMSV METRO Frequency 134.175 MHZ
Type TWR Name TWR Frequency 118.3 MHZ

 AIRPORT NEAR NAVIGATION AIDS
Type NDB Name Bergerud Frequency 316 KHZ
Type VOR-DME Name Gardermoen Frequency 115950 KHZ
Type NDB Name Oppaker Frequency 334 KHZ
Type NDB Name Solberg Frequency 414 KHZ
Type NDB Name Soknen Frequency 387 KHZ